TimePST,TemperatureF,Dew PointF,Humidity,Sea Level PressureIn,VisibilityMPH,Wind Direction,Wind SpeedMPH,Gust SpeedMPH,PrecipitationIn,Events,Conditions,WindDirDegrees,DateUTC
12:15 AM,50.0,21.2,32,-9999,-9999.0,ESE,8.1,-,N/A,,Clear,110,2013-01-19 08:15:00
12:35 AM,48.2,21.2,34,-9999,-9999.0,ESE,6.9,-,N/A,,Clear,120,2013-01-19 08:35:00
12:55 AM,48.2,19.4,32,-9999,-9999.0,East,6.9,-,N/A,,Clear,100,2013-01-19 08:55:00
1:15 AM,46.4,19.4,34,-9999,-9999.0,East,6.9,-,N/A,,Clear,100,2013-01-19 09:15:00
1:35 AM,48.2,19.4,32,-9999,-9999.0,ESE,9.2,-,N/A,,Clear,120,2013-01-19 09:35:00
1:55 AM,48.2,17.6,30,-9999,-9999.0,ESE,8.1,-,N/A,,Clear,120,2013-01-19 09:55:00
2:15 AM,48.2,19.4,32,-9999,-9999.0,ESE,8.1,-,N/A,,Clear,110,2013-01-19 10:15:00
2:35 AM,46.4,19.4,34,-9999,-9999.0,East,8.1,-,N/A,,Clear,100,2013-01-19 10:35:00
2:55 AM,46.4,19.4,34,-9999,-9999.0,ESE,8.1,-,N/A,,Clear,110,2013-01-19 10:55:00
3:15 AM,50.0,17.6,28,-9999,-9999.0,ESE,6.9,-,N/A,,Clear,120,2013-01-19 11:15:00
3:35 AM,46.4,19.4,34,-9999,-9999.0,ESE,8.1,-,N/A,,Clear,110,2013-01-19 11:35:00
4:55 AM,53.6,14.0,21,-9999,-9999.0,ESE,3.5,-,N/A,,Clear,110,2013-01-19 12:55:00
5:15 AM,51.8,14.0,22,-9999,-9999.0,ESE,4.6,-,N/A,,Clear,110,2013-01-19 13:15:00
5:55 AM,50.0,15.8,26,-9999,-9999.0,ESE,5.8,-,N/A,,Clear,110,2013-01-19 13:55:00
6:15 AM,48.2,15.8,27,-9999,-9999.0,East,6.9,-,N/A,,Clear,100,2013-01-19 14:15:00
6:35 AM,50.0,14.0,24,-9999,-9999.0,East,6.9,-,N/A,,Clear,100,2013-01-19 14:35:00
7:35 AM,48.2,14.0,25,-9999,-9999.0,East,5.8,-,N/A,,Clear,100,2013-01-19 15:35:00
7:55 AM,48.2,14.0,25,-9999,-9999.0,East,5.8,-,N/A,,Clear,90,2013-01-19 15:55:00
8:15 AM,50.0,14.0,24,-9999,-9999.0,East,5.8,-,N/A,,Clear,100,2013-01-19 16:15:00
8:35 AM,50.0,14.0,24,-9999,-9999.0,East,4.6,-,N/A,,Clear,100,2013-01-19 16:35:00
8:55 AM,53.6,14.0,21,-9999,-9999.0,East,3.5,-,N/A,,Clear,80,2013-01-19 16:55:00
9:15 AM,55.4,15.8,21,-9999,-9999.0,East,3.5,-,N/A,,Clear,80,2013-01-19 17:15:00
9:35 AM,57.2,17.6,21,-9999,-9999.0,NE,3.5,-,N/A,,Clear,50,2013-01-19 17:35:00
9:55 AM,57.2,19.4,23,-9999,-9999.0,Calm,Calm,-,N/A,,Clear,0,2013-01-19 17:55:00
10:15 AM,59.0,15.8,19,-9999,-9999.0,SSE,3.5,-,N/A,,Clear,160,2013-01-19 18:15:00
10:35 AM,59.0,19.4,22,-9999,-9999.0,Calm,Calm,-,N/A,,Clear,0,2013-01-19 18:35:00
10:55 AM,59.0,21.2,23,-9999,-9999.0,Calm,Calm,-,N/A,,Clear,0,2013-01-19 18:55:00
11:15 AM,60.8,26.6,27,-9999,-9999.0,Calm,Calm,-,N/A,,Clear,0,2013-01-19 19:15:00
11:55 AM,59.0,24.8,27,-9999,-9999.0,Calm,Calm,-,N/A,,Clear,0,2013-01-19 19:55:00
12:15 PM,59.0,24.8,27,-9999,-9999.0,Calm,Calm,-,N/A,,Clear,0,2013-01-19 20:15:00
12:35 PM,60.8,24.8,25,-9999,-9999.0,West,4.6,-,N/A,,Clear,270,2013-01-19 20:35:00
12:55 PM,59.0,24.8,27,-9999,-9999.0,WNW,4.6,-,N/A,,Clear,300,2013-01-19 20:55:00
1:15 PM,59.0,23.0,25,30.23,10.0,WNW,4.6,-,N/A,,Clear,290,2013-01-19 21:15:00
1:35 PM,60.8,24.8,25,30.23,10.0,WNW,6.9,-,N/A,,Clear,290,2013-01-19 21:35:00
1:55 PM,59.0,24.8,27,30.22,10.0,NNW,4.6,-,N/A,,Clear,330,2013-01-19 21:55:00
2:15 PM,60.8,24.8,25,30.22,10.0,NW,3.5,-,N/A,,Clear,310,2013-01-19 22:15:00
2:35 PM,60.8,24.8,25,30.22,10.0,NW,3.5,-,N/A,,Clear,320,2013-01-19 22:35:00
2:55 PM,60.8,24.8,25,30.21,10.0,NW,3.5,-,N/A,,Clear,310,2013-01-19 22:55:00
3:15 PM,59.0,24.8,27,30.21,10.0,NNW,3.5,-,N/A,,Clear,330,2013-01-19 23:15:00
3:35 PM,59.0,26.6,29,30.21,10.0,WNW,3.5,-,N/A,,Clear,300,2013-01-19 23:35:00
3:55 PM,59.0,26.6,29,30.21,10.0,NW,3.5,-,N/A,,Clear,320,2013-01-19 23:55:00
4:15 PM,59.0,28.4,31,30.22,10.0,Calm,Calm,-,N/A,,Clear,0,2013-01-20 00:15:00
4:35 PM,57.2,30.2,36,30.22,10.0,Calm,Calm,-,N/A,,Clear,0,2013-01-20 00:35:00
4:55 PM,55.4,30.2,38,30.21,10.0,NNW,3.5,-,N/A,,Clear,330,2013-01-20 00:55:00
5:15 PM,55.4,30.2,38,30.21,10.0,NNW,4.6,-,N/A,,Clear,340,2013-01-20 01:15:00
5:35 PM,55.4,32.0,41,30.21,10.0,North,3.5,-,N/A,,Clear,10,2013-01-20 01:35:00
5:55 PM,55.4,28.4,36,30.21,10.0,NNE,3.5,-,N/A,,Clear,30,2013-01-20 01:55:00
6:15 PM,53.6,30.2,41,30.21,10.0,East,4.6,-,N/A,,Clear,90,2013-01-20 02:15:00
6:35 PM,53.6,28.4,38,30.21,10.0,East,5.8,-,N/A,,Clear,80,2013-01-20 02:35:00
6:55 PM,55.4,28.4,36,30.22,10.0,Calm,Calm,-,N/A,,Clear,0,2013-01-20 02:55:00
7:15 PM,53.6,28.4,38,30.22,10.0,ENE,4.6,-,N/A,,Clear,60,2013-01-20 03:15:00
7:35 PM,53.6,28.4,38,30.22,10.0,East,5.8,-,N/A,,Clear,90,2013-01-20 03:35:00
7:55 PM,51.8,28.4,41,30.22,10.0,ENE,9.2,-,N/A,,Clear,70,2013-01-20 03:55:00
8:15 PM,51.8,28.4,41,30.23,10.0,East,6.9,-,N/A,,Clear,90,2013-01-20 04:15:00
8:35 PM,51.8,26.6,38,30.23,10.0,East,4.6,-,N/A,,Clear,80,2013-01-20 04:35:00
8:55 PM,51.8,26.6,38,30.23,10.0,East,6.9,-,N/A,,Clear,100,2013-01-20 04:55:00
9:15 PM,51.8,26.6,38,30.24,10.0,East,4.6,-,N/A,,Clear,100,2013-01-20 05:15:00
9:35 PM,50.0,26.6,40,30.24,10.0,East,6.9,-,N/A,,Clear,100,2013-01-20 05:35:00
9:55 PM,50.0,24.8,37,30.24,10.0,East,5.8,-,N/A,,Clear,90,2013-01-20 05:55:00
10:15 PM,50.0,24.8,37,30.25,10.0,ESE,4.6,-,N/A,,Clear,110,2013-01-20 06:15:00
10:35 PM,48.2,24.8,40,30.26,10.0,East,6.9,-,N/A,,Clear,100,2013-01-20 06:35:00
10:55 PM,50.0,24.8,37,30.26,10.0,ESE,6.9,-,N/A,,Clear,110,2013-01-20 06:55:00
11:15 PM,48.2,24.8,40,30.26,10.0,ESE,6.9,-,N/A,,Clear,110,2013-01-20 07:15:00
11:35 PM,48.2,23.0,37,30.26,10.0,ESE,6.9,-,N/A,,Clear,110,2013-01-20 07:35:00
11:55 PM,48.2,23.0,37,30.26,10.0,East,6.9,-,N/A,,Clear,100,2013-01-20 07:55:00